Погода Нижний Новгород

Хотите узнать прогноз погоды в Нижнем Новгороде? Тогда Вам сюда: Погода в Нижнем Новгороде

Поиск расширенной информации на нашем сайте:

Полезная информация:

Новости сайта



29.11.2019
Обновлён Долгосрочный прогноз погоды по России и другим странам хСССР на декабрь 2019 года.
Опубликованы прогностические карты: Уточнённый прогноз на декабрь 2019 года, Схема синоптических процессов на декабрь 2019 г., Предварительный прогноз на январь и февраль 2020 года.

14.11.2019
Обновлён Долгосрочный прогноз погоды по России и другим странам хСССР на ноябрь-декабрь 2019 года.
Опубликованы прогностические карты: Предварительный прогноз на декабрь 2019 года, Предварительный прогноз на январь 2020 года, Предварительная схема синоптических процессов на декабрь 2019 г..

11.11.2019
Обновлены Долгосрочный прогноз погоды по России и другим странам хСССР на ноябрь-декабрь 2019 года и Предварительный прогноз на зиму 2019/2020 годов

04.11.2019
Опубликован Долгосрочный прогноз погоды по России и другим странам хСССР на ноябрь 2019 года
Сравнение прогнозируемой аномалии приземной температуры воздуха на ноябрь 2019 года по разным моделям
Предварительный прогноз на зиму 2019/2020 года




Погода Нижний Новгород - сегодня

Время (UTC), дата Ветер
(°,м/с) 
Видим.   Явления Облачность Т
(°С)
Тd
(°С)
f(%) Тe
(°С)
Pmin
(гПа)
dP
(гПа)
Po
(мм)
O2
(г/м3)
Тmin Tmax R s Состояние
почвы
06 08.12.19 200 (Ю) 1-4{08}  10 км    8/0 средняя, верхняя 
[Ac trans|Ci fib]
+0.9 -2.4 79 +2  1004.7  -0.2  739  297           
09 08.12.19 210 (ЮЗ) 2-5{08}  10 км    9/9 600 м 
[Sc]
+2.6 -1.4 75 +2  1004.2  -0.4  739  295           
12 08.12.19 200 (Ю) 2-7{09}  10 км    10/10 600 м 
[Sc]
+2.3 -0.6 81 +2  1004  -0.3  738  295           
15 08.12.19 190 (Ю) 2-6{09}  10 км  слаб. дождь  10/10 300 м 
[Frnb]
+1.7 +1.4 98 +1  1005.1  1.1  739  296    +2.8  0.3     
18 08.12.19 230 (ЮЗ) 1-7{08}  10 км  {дождь}  10/10 600 м 
[Sc]
+1.4 +1.2 99 +2  1006.4  1.3  740  297           
21 08.12.19 230 (ЮЗ) 2-4{08}  10 км    10/10 600 м 
[Sc]
+1.1 +0.1 93 1008.3  1.8  742  298           
00 09.12.19 210 (ЮЗ) 2-5{08}  10 км    9/6 600 м средняя 
[Sc|Ac trans]
+0.6 -0.4 93 1009.4  742  298           
03 09.12.19 190 (Ю) 2-4{06}  10 км    9/9 600 м 
[Sc]
+1 -0.6 89 1010.1  0.7  743  298  +0.6    0.4  равномерный
мокрый или
старый снег
100% 
06 09.12.19 180 (Ю) 2-6{07}  10 км    10/5 600 м средняя 
[Sc|As op]
+0.2 -2.1 85 -1  1009.9  -0.2  743  299  +0.1         
09 09.12.19 190 (Ю) 2-7{08}  10 км    8/6 600 м средняя 
[Sc|Ac trans]
+1.4 -2.4 76 +1  1009.5  -0.3  743  298           
12 09.12.19 190 (Ю) 3-8{09}  10 км    9/0 средняя 
[Ac trans]
+1.6 -2 77 1008.7  -0.8  742  297           
15 09.12.19 180 (Ю) 3-8{11}  10 км    10/8 600 м средняя 
[Sc|Ac und]
+0.9 -1.8 82 -1  1008.1  -0.6  741  298    +1.8       
18 09.12.19 200 (Ю) 2-5{08}  10 км    10/10 300 м 
[Sc]
+1.4 -1.2 83 +1  1008.8  0.7  742  298           
21 09.12.19 200 (Ю) 2-6{07}  10 км    10/10 300 м 
[Sc]
+2 +0.1 87 +1  1009.4  0.6  742  297           
00 10.12.19 230 (ЮЗ) 2-5{09}  10 км    10/10 300 м 
[Sc]
+2.2 +1.5 95 +2  1010.7  1.3  743  297           
03 10.12.19 220 (ЮЗ) 2-6{08}  10 км    10/10 300 м 
[Sc]
+2.2 +1.6 96 +2  1012  1.3  744  297  +0.9      равномерный
мокрый или
старый снег
100% 
06 10.12.19 230 (ЮЗ) 1-5{07}  10 км    10/10 300 м 
[St]
+2 +1.6 97 +3  1013.8  1.8  746  298           
09 10.12.19 250 (З) 1-4{05}  10 км  {морось}  10/10 300 м 
[St]
+2.1 +1.9 99 +3  1015.1  1.2  747  298           
12 10.12.19 200 (Ю) 2-4{05}  10 км  {морось}  10/10 300 м 
[St]
+1.9 +1.9 100 +1  1015.9  0.8  747  299           
15 10.12.19 220 (ЮЗ) 1-4{05}  2000 м  слаб. морось  10/10 200 м 
[St]
+1.6 +1.6 100 +2  1016.1  0.2  747  299    +2.2  0.0     
18 10.12.19 220 (ЮЗ) 1-3{04}  2000 м  слаб. морось  10/10 200 м 
[St]
+1.4 +1.4 100 +2  1015.6  -0.5  747  299           
21 10.12.19 230 (ЮЗ) 2-5{06}  2000 м  слаб. морось  10/10 200 м 
[St]
+1.2 +1.2 100 +1  1015.5  -0.2  747  299           
00 11.12.19 240 (ЮЗ) 1-4{06}  2000 м  дымка{дождь, морось}  10/10 200 м 
[St]
+0.9 +0.9 100 +2  1015.1  -0.4  747  300           
03 11.12.19 250 (З) 1-4{05}  1000 м  морось  10/10 100 м 
[St]
+0.9 +0.9 100 +2  1015  747  300  +0.9    0.4  мокрый или
старый снег
50-90% 
06 11.12.19 260 (З) 2-6{06}  0500 м  туман{морось}  ?/?  
+1 +1 100 1016  0.9  747  300           
Время (UTC), дата Ветер
(°,м/с) 
Видим.   Явления Облачность Т
(°С)
Тd
(°С)
f(%) Тe
(°С)
Pmin
(гПа)
dP
(гПа)
Po
(мм)
O2
(г/м3)
Тmin Tmax R s Состояние
почвы

Для получения пояснительной информации подведите курсор к названию столбца.

ПОГОДА Нижний Новгород - архив

Всё, что Вы хотите узнать о погоде Нижний Новгород - удобно и подробно!

Выберите нужную дату (начиная с 1 января 2019* года) и нажмите кнопку "Найти".
Будут отображены архивные сводки погоды по пункту Нижний Новгород, начиная с указанной даты.


Отображать данные в формате CSV (для использования в таблицах Excel)


Внимание! Наш архив погоды предназначен исключительно для личного некоммерческого использования в познавательных целях. Если Вам необходимы официальные справки о состоянии погоды (для производственных, юридических, коммерческих и т.п. целей), обращайтесь в органы Росгидромета.

*Примечание: данная дата относится к архиву по метеостанциям СССР (Россия, СНГ, Балтия).
Архив по метеостанциям Зарубежной Европы и Азии (кроме Китая) хранится 10 дней, по другим регионам земного шара (Китай, Африка, Америка, Австралия, Океания) - 1 день.

Нижний Новгород - район местоположения метеостанции


Название, широта, долгота, высота метеостанции:
Нижний Новгород (Мыза) 56.3°ш. 44°д. 157 м над ур. моря [Российская Федерация]

Дополнительная информация

В oтличие oт бoльшинства пoгoдных сайтoв мы публикуем пoдрoбную метеoинфoрмацию в детальнoм прoфессиoнальнoм фoрмате.

Характеристики температуры и влажнoсти вoздуха измеряются на высoте 2 м в тени вдали oт зданий и деревьев.
Скoрoсть ветра измеряется на высoте 10 м (на урoвне рoста челoвека скoрoсть ветра ниже в 1.5-2 раза). Если метеoстанция нахoдится в гoрoде или в лесу, тo скoрoсть ветра занижена на 2-4 м/с пo сравнению с oткрытым местoм. Скoрoсть ветра над акватoриями крупных рек и oзёр, а также на вершинах хoлмoв на 2-5 м/с выше, чем в oбычных услoвиях.
Атмoсфернoе давление в разных тoчках местнoсти мoжет значительнo oтличаться oт давления на метеoстанции, в зависимoсти oт услoвий рельефа (при пoдъёме на 10 м давление пoнижается примернo на 1 мм рт.ст.).